Tracking 19817 objects as of 19-Aug-2019
HD Live streaming from Space Station
objects crossing your sky now

LINGQIAO VIDEO A

Track LINGQIAO VIDEO A now!
10-day predictions


NORAD ID: 40959
Int'l Code: 2015-057B
Perigee: 644.4 km
Apogee: 671.2 km
Inclination: 97.9 °
Period: 97.7 minutes
Semi major axis: 7028 km
RCS: Unknown
Launch date: October 7, 2015
Source: People's Republic of China (PRC)
Launch site: Jiuquan Satellite Launch Center, China (JSC)

LINGQIAO VIDEO A is a Chinese satellite designed for video capture.
aabbcc
Your satellite tracking list
Your tracking list is empty




NASA's NSSDC Master Catalog

Two Line Element Set (TLE):
1 40959U 15057B   19230.88651438 -.00000018 +00000-0 +47739-5 0  9998
2 40959 097.8963 298.7846 0019062 049.1201 311.1642 14.73260045207841
Source of the keplerian elements: AFSPC